Location: Lombard
(41.8800°N, 88.0080°W)
Time: 01:58:14
(UTC-05:00)

Vanguard 3 - Pass Details

Date: 12 December 2023
Orbit: 507 x 3223 km, 33.3° (Epoch: 07 October)

Event Time Altitude Azimuth Distance (km) Brightness Sun altitude
Rises 18:41:08 0° 232° (SW) 7,209 12.9 -25.2°
Reaches altitude 10° 18:46:22 10° 228° (SW) 6,147 12.3 -26.1°
Maximum altitude 19:03:56 48° 162° (SSE) 3,209 9.9 -29.4°
Enters shadow 19:08:46 38° 122° (ESE) 3,228 9.7 -30.3°
